Cape Coral Yacht Club FL US WEATHERSTEM current weather conditions

sailwx.info

Wind from 221 at 7 knots gusting 22

Air temperature 27.8° C
Dewpoint 23.8° C

Last reported at 2020-Jul-06 19:00 UTC.
Time now 2020-Jul-06 20:03 UTC

Location: N 26°33' W 081°57'.
View on Google Maps.

See reports from other nearby stations

  
Tides and Currents Weather Stations Pressure Air Temp Water Temp Dewpoint Dewpoint Depression Visibility Wind Speed Wind Dir Waves Ship Positions
date/time (UTC)wind fromknots sea level pressurealtimeterstation pressurevisibilityair tempwater tempwave heightnotes
2020-Jul-06 19:00 221 7 gusting 22 27.8
2020-Jul-06 18:40 163 6 gusting 16 30.3
2020-Jul-06 18:20 138 14 gusting 16 30.6
2020-Jul-06 18:10 182 4 gusting 14 30.6
2020-Jul-06 18:00 171 13 gusting 16 30.8
2020-Jul-06 17:50 196 4 gusting 11 30.8
2020-Jul-06 17:40 216 6 gusting 11 30.8
2020-Jul-06 17:20 218 10 gusting 12 30.9
2020-Jul-06 17:10 152 3 gusting 8 30.7
2020-Jul-06 17:00 169 6 gusting 9 30.6
2020-Jul-06 16:50 179 6 gusting 9 30.4
2020-Jul-06 16:40 180 4 gusting 7 30.4
2020-Jul-06 16:30 171 4 gusting 8 30.2
2020-Jul-06 16:20 166 5 gusting 6 30.2
2020-Jul-06 16:10 148 4 gusting 6 30.1
2020-Jul-06 16:00 173 2 gusting 6 29.9
2020-Jul-06 15:50 135 4 gusting 6 29.6
2020-Jul-06 15:40 151 2 gusting 6 29.7
2020-Jul-06 15:30 138 3 gusting 6 29.4
2020-Jul-06 15:20 140 2 gusting 6 29.4
2020-Jul-06 15:10 145 2 gusting 7 29.1
2020-Jul-06 15:00 153 4 gusting 6 29.0
2020-Jul-06 14:50 123 2 gusting 6 28.4
2020-Jul-06 14:40 125 4 gusting 6 28.4
2020-Jul-06 14:30 126 6 gusting 8 28.2
2020-Jul-06 14:20 141 4 gusting 8 28.2
2020-Jul-06 14:10 148 3 gusting 8 28.3
2020-Jul-06 14:00 138 6 gusting 7 28.5
2020-Jul-06 13:50 127 3 gusting 6 28.3
2020-Jul-06 13:40 134 2 gusting 6 27.9
2020-Jul-06 13:30 144 3 gusting 7 27.8
2020-Jul-06 13:20 130 1 gusting 6 27.7
2020-Jul-06 13:10 117 6 gusting 7 27.3
2020-Jul-06 13:00 123 3 gusting 10 27.2
2020-Jul-06 12:50 116 8 gusting 10 27.2
2020-Jul-06 12:40 129 2 gusting 7 27.2
2020-Jul-06 12:30 130 3 gusting 6 27.1
2020-Jul-06 12:20 130 2 gusting 6 27.0
2020-Jul-06 12:10 137 6 gusting 7 26.8
2020-Jul-06 12:00 123 4 gusting 9 26.4
2020-Jul-06 11:50 116 6 gusting 7 26.3
2020-Jul-06 11:40 100 5 gusting 7 26.4
2020-Jul-06 11:30 098 1 gusting 3 26.6
2020-Jul-06 11:20 26.4
2020-Jul-06 11:10 098 1 gusting 3 26.2
2020-Jul-06 11:00 098 1 gusting 5 26.1
2020-Jul-06 10:50 098 1 gusting 5 26.2
2020-Jul-06 10:40 098 2 gusting 6 26.1
2020-Jul-06 10:30 099 3 gusting 7 25.9
2020-Jul-06 10:20 102 6 gusting 8 26.0
2020-Jul-06 10:10 123 3 gusting 8 26.1
2020-Jul-06 10:00 119 6 gusting 9 26.4
2020-Jul-06 09:50 26.6
2020-Jul-06 09:40 26.7
2020-Jul-06 09:30 319 1 gusting 3 26.7
2020-Jul-06 09:20 319 2 gusting 4 26.7
2020-Jul-06 09:10 042 2 gusting 3 26.7
2020-Jul-06 08:10 190 0 gusting 0 25.0
2020-Jul-06 03:50 110 6 gusting 6 26.7
2020-Jul-06 03:40 110 6 gusting 6 26.7
2020-Jul-06 03:00 086 4 gusting 7 27.8
2020-Jul-06 02:50 203 3 gusting 3 28.2
2020-Jul-06 02:40 28.1
2020-Jul-06 02:20 203 28.2
2020-Jul-06 02:10 203 4 gusting 4 28.1
2020-Jul-06 02:00 203 2 gusting 3 27.8
2020-Jul-06 01:50 203 0 gusting 6 27.8
2020-Jul-06 01:40 203 2 gusting 5 27.7
2020-Jul-06 01:20 205 6 gusting 6 27.8
2020-Jul-06 01:10 220 3 gusting 8 28.2
2020-Jul-06 01:00 221 5 gusting 6 28.5
2020-Jul-06 00:40 194 3 gusting 8 27.7
2020-Jul-06 00:30 169 4 gusting 11 27.8
2020-Jul-06 00:20 204 10 gusting 15 28.1
2020-Jul-06 00:10 192 4 gusting 15 28.7
2020-Jul-06 00:00 193 6 gusting 9 28.7
2020-Jul-05 23:50 166 7 gusting 9 28.7
2020-Jul-05 23:40 196 7 gusting 9 28.7
2020-Jul-05 23:30 245 6 gusting 12 28.2
2020-Jul-05 23:10 238 8 gusting 10 30.0
2020-Jul-05 23:00 230 3 gusting 10 30.7
2020-Jul-05 22:50 197 7 gusting 11 30.9
2020-Jul-05 22:40 195 7 gusting 9 31.0
2020-Jul-05 22:30 196 7 gusting 11 31.1
2020-Jul-05 22:10 221 3 gusting 10 31.2
2020-Jul-05 22:00 208 5 gusting 12 31.2
2020-Jul-05 21:50 196 6 gusting 10 31.3
2020-Jul-05 21:40 195 7 gusting 11 31.3
2020-Jul-05 21:30 192 6 gusting 11 31.3
2020-Jul-05 21:20 228 6 gusting 10 31.4
2020-Jul-05 21:10 196 5 gusting 12 31.3
2020-Jul-05 21:00 229 6 gusting 12 31.4
2020-Jul-05 20:50 224 7 gusting 12 31.7
2020-Jul-05 20:40 234 8 gusting 12 31.6
2020-Jul-05 20:30 225 1 gusting 9 31.9
2020-Jul-05 20:20 220 1 gusting 8 31.8
2020-Jul-05 20:00 220 6 gusting 10 31.6
2020-Jul-05 19:50 275 6 gusting 11 31.6
2020-Jul-05 19:40 254 3 gusting 8 31.3
2020-Jul-05 19:30 215 6 gusting 10 31.4
2020-Jul-05 19:20 237 5 gusting 11 31.7
2020-Jul-05 19:10 239 10 gusting 12 31.6
2020-Jul-05 19:00 240 8 gusting 12 31.6
2020-Jul-05 18:50 224 6 gusting 10 31.1
2020-Jul-05 18:40 200 7 gusting 11 31.1
2020-Jul-05 18:30 208 8 gusting 11 30.9
2020-Jul-05 18:20 215 7 gusting 11 31.1
2020-Jul-05 18:10 193 6 gusting 9 31.2
2020-Jul-05 18:00 194 6 gusting 9 31.2
2020-Jul-05 17:50 226 5 gusting 7 31.2
2020-Jul-05 17:40 213 3 gusting 7 30.7
2020-Jul-05 17:30 215 3 gusting 6 30.6
2020-Jul-05 17:20 228 6 gusting 7 30.7
2020-Jul-05 17:10 219 3 gusting 7 30.7
2020-Jul-05 17:00 205 6 gusting 7 30.9
2020-Jul-05 16:50 226 5 gusting 6 30.8
2020-Jul-05 16:40 222 5 gusting 7 30.6
2020-Jul-05 16:30 233 4 gusting 6 30.8
2020-Jul-05 16:20 233 5 gusting 6 30.8
2020-Jul-05 16:10 246 4 gusting 6 30.4
2020-Jul-05 16:00 252 3 gusting 6 30.5
2020-Jul-05 15:50 254 2 gusting 6 30.2
2020-Jul-05 15:40 025 0 gusting 3 29.9
2020-Jul-05 15:30 025 0 gusting 3 29.9
2020-Jul-05 15:20 025 0 gusting 3 29.7
2020-Jul-05 15:10 025 1 gusting 3 28.6
2020-Jul-05 15:00 024 1 gusting 4 28.6
2020-Jul-05 14:50 024 1 gusting 5 28.5
2020-Jul-05 14:30 298 2 gusting 3 28.4
2020-Jul-05 14:20 286 0 gusting 2 27.9
2020-Jul-05 14:10 27.6
2020-Jul-05 14:00 27.2
2020-Jul-05 13:50 286 0 gusting 2 27.0
2020-Jul-05 13:40 26.5
2020-Jul-05 13:30 26.4
2020-Jul-05 13:20 286 1 gusting 6 26.4
2020-Jul-05 13:10 273 2 gusting 3 26.7
2020-Jul-05 13:00 273 0 gusting 6 26.6
2020-Jul-05 12:50 275 2 gusting 5 26.4
2020-Jul-05 12:40 275 0 gusting 5 26.2
2020-Jul-05 12:30 275 3 gusting 5 25.8
2020-Jul-05 12:20 275 1 gusting 5 25.4
2020-Jul-05 12:10 275 2 gusting 8 26.0
2020-Jul-05 11:50 242 5 gusting 6 27.4
2020-Jul-05 11:30 121 1 gusting 3 27.8
2020-Jul-05 11:10 121 1 gusting 6 27.2
2020-Jul-05 10:50 125 3 gusting 7 27.1
2020-Jul-05 10:30 150 5 gusting 7 27.1
2020-Jul-05 10:20 181 0 gusting 6 27.0
2020-Jul-05 10:10 136 4 gusting 10 27.5
2020-Jul-05 10:00 121 9 gusting 9 27.8
2020-Jul-05 09:50 052 3 gusting 4 28.1
2020-Jul-05 09:40 051 2 gusting 5 28.3
2020-Jul-05 09:20 308 2 gusting 3 28.4
2020-Jul-05 09:10 308 0 gusting 3 28.1
2020-Jul-05 09:00 27.8
2020-Jul-05 07:10 330 0 gusting 0 27.2
2020-Jul-05 07:00 010 0 gusting 0 27.2
2020-Jul-05 06:50 240 0 gusting 0 27.2
2020-Jul-05 06:40 020 0 gusting 0 27.2
2020-Jul-05 06:30 010 0 gusting 0 27.2
2020-Jul-05 06:20 020 0 gusting 0 27.8
2020-Jul-05 06:10 330 0 gusting 0 27.8
2020-Jul-05 06:00 340 0 gusting 0 27.8
2020-Jul-05 03:00 29.4
2020-Jul-05 02:50 29.4
2020-Jul-05 02:40 29.5
2020-Jul-05 02:30 257 0 gusting 2 29.6
2020-Jul-05 02:20 257 1 gusting 3 29.6
2020-Jul-05 02:10 257 1 gusting 3 29.5
2020-Jul-05 02:00 257 1 gusting 5 29.7
2020-Jul-05 01:50 257 1 gusting 5 29.8
2020-Jul-05 01:40 270 4 gusting 4 29.4
2020-Jul-05 01:20 257 1 gusting 7 29.8
2020-Jul-05 01:00 257 4 gusting 6 29.7
2020-Jul-05 00:50 255 4 gusting 8 29.8
2020-Jul-05 00:40 252 0 gusting 7 29.8
2020-Jul-05 00:30 247 4 gusting 8 29.9
2020-Jul-05 00:20 255 6 gusting 8 29.9
2020-Jul-05 00:10 267 3 gusting 8 29.9
2020-Jul-05 00:00 275 8 gusting 12 30.2
2020-Jul-04 23:50 246 6 gusting 8 30.4
2020-Jul-04 23:30 261 5 gusting 12 30.7
2020-Jul-04 23:20 246 6 gusting 10 30.8
2020-Jul-04 23:10 273 7 gusting 12 30.8
2020-Jul-04 23:00 248 9 gusting 11 30.9
2020-Jul-04 22:50 261 7 gusting 13 31.1
2020-Jul-04 22:30 248 7 gusting 13 31.2
2020-Jul-04 22:20 236 7 gusting 12 31.3
2020-Jul-04 22:10 235 4 gusting 13 31.3
2020-Jul-04 22:00 226 11 gusting 12 31.4
2020-Jul-04 21:50 237 11 gusting 12 31.4
2020-Jul-04 21:40 227 7 gusting 16 31.3
2020-Jul-04 21:30 249 6 gusting 14 31.2
2020-Jul-04 21:20 244 10 gusting 13 31.4
2020-Jul-04 21:00 241 3 gusting 13 31.4
2020-Jul-04 20:50 217 6 gusting 15 31.6
2020-Jul-04 20:40 221 6 gusting 14 31.5
2020-Jul-04 20:20 230 6 gusting 18 31.6
2020-Jul-04 20:00 225 5 gusting 14 31.4